Terminal Aerodrome Forecast
Issued by NWS

Home | Current Version | Previous Version | Text Only | Print | Product List | Glossary On
Versions: 1 2 3 4 5 6 7 8 9 10 11 12 13 14 15 16 17 18 19 20 21
000
FTUS46 KPDT 262300
TAFBDN
TAF
KBDN 262320Z 2700/2724 23005KT P6SM FEW030 SCT200
     FM270600 23007KT P6SM SCT050 BKN120
     FM272100 22011KT P6SM BKN030=

USA.gov is the U.S. government's official web portal to all federal, state and local government web resources and services.